Location: Eboldshausen
(51.7766°N, 10.0050°E)
Time: 16:57:09
(UTC+00:00)

Timation 2 Rocket - Pass Details

Date: 15 November 2025
Orbit: 904 x 1074 km, 70.0° (Epoch: 09 December)

Event Time Altitude Azimuth Distance (km) Brightness Sun altitude
Rises 17:40:57 0° 206° (SSW) 3,844 7.5 -20.1°
Reaches altitude 10° 17:43:33 10° 205° (SSW) 2,900 6.8 -20.5°
Maximum altitude 17:50:25 82° 119° (ESE) 1,091 4.1 -21.6°
Enters shadow 17:55:08 22° 35° (NE) 2,145 5.4 -22.3°
